Time,TemperatureF,DewpointF,PressureIn,WindDirection,WindDirectionDegrees,WindSpeedMPH,WindSpeedGustMPH,Humidity,HourlyPrecipIn,Conditions,Clouds,dailyrainin,SoftwareType,DateUTC
2013-05-03 00:03:00,57.0,54.0,30.22,North,11,1.0,-999.0,90,-99.99,,,-99.99,,2013-05-03 04:03:00,
2013-05-03 00:13:00,57.0,54.0,30.22,North,11,1.0,-999.0,90,-99.99,,,-99.99,,2013-05-03 04:13:00,
2013-05-03 00:23:00,57.0,54.0,30.21,North,349,1.0,-999.0,90,-99.99,,,-99.99,,2013-05-03 04:23:00,
2013-05-03 00:32:00,56.0,53.0,30.21,NNE,32,1.0,-999.0,91,-99.99,,,-99.99,,2013-05-03 04:32:00,
2013-05-03 00:43:00,56.0,53.0,30.21,NNE,32,1.0,-999.0,91,-99.99,,,-99.99,,2013-05-03 04:43:00,
2013-05-03 00:53:00,56.0,53.0,30.21,ENE,64,0.0,-999.0,91,-99.99,,,-99.99,,2013-05-03 04:53:00,
2013-05-03 01:02:00,56.0,53.0,30.21,NNW,336,0.0,-999.0,91,-99.99,,,-99.99,,2013-05-03 05:02:00,
2013-05-03 01:12:00,56.0,53.0,30.21,NNW,336,0.0,-999.0,91,-99.99,,,-99.99,,2013-05-03 05:12:00,
2013-05-03 01:21:00,55.0,52.0,30.21,NNE,23,1.0,-999.0,91,-99.99,,,-99.99,,2013-05-03 05:21:00,
2013-05-03 01:32:00,55.0,53.0,30.20,NE,39,0.0,-999.0,92,-99.99,,,-99.99,,2013-05-03 05:32:00,
2013-05-03 01:42:00,55.0,53.0,30.20,NE,39,0.0,-999.0,92,-99.99,,,-99.99,,2013-05-03 05:42:00,
2013-05-03 01:52:00,55.0,52.0,30.20,North,9,1.0,-999.0,91,-99.99,,,-99.99,,2013-05-03 05:52:00,
2013-05-03 02:02:00,54.0,52.0,30.19,East,80,1.0,-999.0,92,-99.99,,,-99.99,,2013-05-03 06:02:00,
2013-05-03 02:12:00,54.0,52.0,30.19,East,80,1.0,-999.0,92,-99.99,,,-99.99,,2013-05-03 06:12:00,
2013-05-03 02:21:00,54.0,52.0,30.19,NE,54,1.0,-999.0,92,-99.99,,,-99.99,,2013-05-03 06:21:00,
2013-05-03 02:32:00,54.0,52.0,30.19,NNE,25,0.0,-999.0,92,-99.99,,,-99.99,,2013-05-03 06:32:00,
2013-05-03 02:42:00,54.0,52.0,30.19,NNE,25,0.0,-999.0,92,-99.99,,,-99.99,,2013-05-03 06:42:00,
2013-05-03 02:52:00,54.0,52.0,30.18,NNE,32,1.0,-999.0,92,-99.99,,,-99.99,,2013-05-03 06:52:00,
2013-05-03 03:01:00,53.0,51.0,30.18,ENE,67,1.0,-999.0,92,-99.99,,,-99.99,,2013-05-03 07:01:00,
2013-05-03 03:11:00,53.0,51.0,30.18,ENE,67,1.0,-999.0,92,-99.99,,,-99.99,,2013-05-03 07:11:00,
2013-05-03 03:21:00,53.0,51.0,30.18,NNE,17,1.0,-999.0,92,-99.99,,,-99.99,,2013-05-03 07:21:00,
2013-05-03 03:32:00,53.0,51.0,30.17,NNE,23,1.0,-999.0,92,-99.99,,,-99.99,,2013-05-03 07:32:00,
2013-05-03 03:42:00,53.0,51.0,30.17,NNE,23,1.0,-999.0,92,-99.99,,,-99.99,,2013-05-03 07:42:00,
2013-05-03 03:52:00,53.0,51.0,30.17,NE,51,1.0,-999.0,93,-99.99,,,-99.99,,2013-05-03 07:52:00,
2013-05-03 04:02:00,52.0,50.0,30.16,NNE,26,1.0,-999.0,92,-99.99,,,-99.99,,2013-05-03 08:02:00,
2013-05-03 04:12:00,52.0,50.0,30.16,NNE,26,1.0,-999.0,92,-99.99,,,-99.99,,2013-05-03 08:12:00,
2013-05-03 04:21:00,52.0,50.0,30.17,North,355,1.0,-999.0,93,-99.99,,,-99.99,,2013-05-03 08:21:00,
2013-05-03 04:32:00,52.0,50.0,30.16,NW,315,1.0,-999.0,93,-99.99,,,-99.99,,2013-05-03 08:32:00,
2013-05-03 04:42:00,52.0,50.0,30.16,NW,315,1.0,-999.0,93,-99.99,,,-99.99,,2013-05-03 08:42:00,
2013-05-03 04:53:00,52.0,50.0,30.16,North,10,1.0,-999.0,93,-99.99,,,-99.99,,2013-05-03 08:53:00,
2013-05-03 05:01:00,51.0,49.0,30.17,NNE,20,1.0,-999.0,93,-99.99,,,-99.99,,2013-05-03 09:01:00,
2013-05-03 05:12:00,51.0,49.0,30.17,NNE,20,1.0,-999.0,93,-99.99,,,-99.99,,2013-05-03 09:12:00,
2013-05-03 05:21:00,51.0,49.0,30.17,North,350,1.0,-999.0,93,-99.99,,,-99.99,,2013-05-03 09:21:00,
2013-05-03 05:32:00,51.0,49.0,30.16,NNE,16,1.0,-999.0,93,-99.99,,,-99.99,,2013-05-03 09:32:00,
2013-05-03 05:42:00,51.0,49.0,30.16,NNE,16,1.0,-999.0,93,-99.99,,,-99.99,,2013-05-03 09:42:00,
2013-05-03 05:53:00,51.0,49.0,30.16,WNW,293,1.0,-999.0,94,-99.99,,,-99.99,,2013-05-03 09:53:00,
2013-05-03 06:03:00,51.0,49.0,30.16,North,5,1.0,-999.0,94,-99.99,,,-99.99,,2013-05-03 10:03:00,
2013-05-03 06:12:00,51.0,49.0,30.16,North,5,1.0,-999.0,94,-99.99,,,-99.99,,2013-05-03 10:12:00,
2013-05-03 06:22:00,51.0,49.0,30.16,NNE,17,1.0,-999.0,94,-99.99,,,-99.99,,2013-05-03 10:22:00,
2013-05-03 06:32:00,51.0,49.0,30.17,NNE,15,1.0,-999.0,94,-99.99,,,-99.99,,2013-05-03 10:32:00,
2013-05-03 06:42:00,51.0,49.0,30.17,NNE,15,1.0,-999.0,94,-99.99,,,-99.99,,2013-05-03 10:42:00,
2013-05-03 06:52:00,51.0,49.0,30.17,NNE,19,1.0,-999.0,94,-99.99,,,-99.99,,2013-05-03 10:52:00,
2013-05-03 07:02:00,51.0,49.0,30.18,NNW,346,2.0,-999.0,94,-99.99,,,-99.99,,2013-05-03 11:02:00,
2013-05-03 07:11:00,51.0,49.0,30.18,NNW,346,2.0,-999.0,94,-99.99,,,-99.99,,2013-05-03 11:11:00,
2013-05-03 07:22:00,51.0,49.0,30.18,NE,42,1.0,-999.0,94,-99.99,,,-99.99,,2013-05-03 11:22:00,
2013-05-03 07:32:00,51.0,49.0,30.19,NNE,19,1.0,-999.0,94,-99.99,,,-99.99,,2013-05-03 11:32:00,
2013-05-03 07:42:00,51.0,49.0,30.19,NNE,19,1.0,-999.0,94,-99.99,,,-99.99,,2013-05-03 11:42:00,
2013-05-03 07:52:00,52.0,50.0,30.19,NNE,26,1.0,-999.0,94,-99.99,,,-99.99,,2013-05-03 11:52:00,
2013-05-03 08:02:00,52.0,50.0,30.19,North,360,1.0,-999.0,93,-99.99,,,-99.99,,2013-05-03 12:02:00,
2013-05-03 08:11:00,52.0,50.0,30.19,North,360,1.0,-999.0,93,-99.99,,,-99.99,,2013-05-03 12:11:00,
2013-05-03 08:21:00,52.0,50.0,30.20,NNE,13,2.0,-999.0,92,-99.99,,,-99.99,,2013-05-03 12:21:00,
2013-05-03 08:32:00,53.0,51.0,30.20,NNE,30,1.0,-999.0,92,-99.99,,,-99.99,,2013-05-03 12:32:00,
2013-05-03 08:42:00,53.0,51.0,30.20,NNE,30,1.0,-999.0,92,-99.99,,,-99.99,,2013-05-03 12:42:00,
2013-05-03 08:52:00,53.0,50.0,30.20,NE,46,2.0,-999.0,91,-99.99,,,-99.99,,2013-05-03 12:52:00,
2013-05-03 09:01:00,53.0,50.0,30.19,ENE,60,1.0,-999.0,91,-99.99,,,-99.99,,2013-05-03 13:01:00,
2013-05-03 09:11:00,53.0,50.0,30.19,ENE,60,1.0,-999.0,91,-99.99,,,-99.99,,2013-05-03 13:11:00,
2013-05-03 09:22:00,54.0,51.0,30.20,ENE,67,2.0,-999.0,89,-99.99,,,-99.99,,2013-05-03 13:22:00,
2013-05-03 09:32:00,55.0,52.0,30.21,NNW,327,1.0,-999.0,89,-99.99,,,-99.99,,2013-05-03 13:32:00,
2013-05-03 09:42:00,55.0,52.0,30.21,NNW,327,1.0,-999.0,89,-99.99,,,-99.99,,2013-05-03 13:42:00,
2013-05-03 09:52:00,56.0,52.0,30.20,NE,56,2.0,-999.0,87,-99.99,,,-99.99,,2013-05-03 13:52:00,
2013-05-03 10:02:00,58.0,53.0,30.20,ENE,77,3.0,-999.0,84,-99.99,,,-99.99,,2013-05-03 14:02:00,
2013-05-03 10:11:00,58.0,53.0,30.20,ENE,77,3.0,-999.0,84,-99.99,,,-99.99,,2013-05-03 14:11:00,
2013-05-03 10:22:00,59.0,54.0,30.20,WNW,298,3.0,-999.0,82,-99.99,,,-99.99,,2013-05-03 14:22:00,
2013-05-03 10:32:00,60.0,54.0,30.21,NNE,15,2.0,-999.0,80,-99.99,,,-99.99,,2013-05-03 14:32:00,
2013-05-03 10:42:00,60.0,54.0,30.21,NNE,15,2.0,-999.0,80,-99.99,,,-99.99,,2013-05-03 14:42:00,
2013-05-03 10:52:00,62.0,54.0,30.21,NE,42,3.0,-999.0,76,-99.99,,,-99.99,,2013-05-03 14:52:00,
2013-05-03 11:01:00,63.0,55.0,30.20,North,355,1.0,-999.0,75,-99.99,,,-99.99,,2013-05-03 15:01:00,
2013-05-03 11:11:00,63.0,55.0,30.20,North,355,1.0,-999.0,75,-99.99,,,-99.99,,2013-05-03 15:11:00,
2013-05-03 11:22:00,64.0,54.0,30.20,NE,56,2.0,-999.0,70,-99.99,,,-99.99,,2013-05-03 15:22:00,
2013-05-03 11:32:00,64.0,55.0,30.20,North,355,1.0,-999.0,73,-99.99,,,-99.99,,2013-05-03 15:32:00,
2013-05-03 11:43:00,64.0,55.0,30.20,North,355,1.0,-999.0,73,-99.99,,,-99.99,,2013-05-03 15:43:00,
2013-05-03 11:53:00,66.0,55.0,30.21,NE,52,2.0,-999.0,68,-99.99,,,-99.99,,2013-05-03 15:53:00,
2013-05-03 12:03:00,67.0,55.0,30.20,NNE,17,2.0,-999.0,66,-99.99,,,-99.99,,2013-05-03 16:03:00,
2013-05-03 12:13:00,67.0,55.0,30.20,NNE,17,2.0,-999.0,66,-99.99,,,-99.99,,2013-05-03 16:13:00,
2013-05-03 12:23:00,67.0,55.0,30.20,NE,52,1.0,-999.0,66,-99.99,,,-99.99,,2013-05-03 16:23:00,
2013-05-03 12:33:00,68.0,56.0,30.20,NNE,25,1.0,-999.0,65,-99.99,,,-99.99,,2013-05-03 16:33:00,
2013-05-03 12:42:00,68.0,56.0,30.20,NNE,25,1.0,-999.0,65,-99.99,,,-99.99,,2013-05-03 16:42:00,
2013-05-03 12:52:00,69.0,57.0,30.19,North,350,2.0,-999.0,65,-99.99,,,-99.99,,2013-05-03 16:52:00,
2013-05-03 13:02:00,68.0,56.0,30.19,East,92,2.0,-999.0,66,-99.99,,,-99.99,,2013-05-03 17:02:00,
2013-05-03 13:12:00,68.0,56.0,30.19,East,92,2.0,-999.0,66,-99.99,,,-99.99,,2013-05-03 17:12:00,
2013-05-03 13:23:00,69.0,57.0,30.18,ENE,57,2.0,-999.0,65,-99.99,,,-99.99,,2013-05-03 17:23:00,
2013-05-03 13:32:00,70.0,56.0,30.18,East,98,2.0,-999.0,62,-99.99,,,-99.99,,2013-05-03 17:32:00,
2013-05-03 13:42:00,70.0,56.0,30.18,East,98,2.0,-999.0,62,-99.99,,,-99.99,,2013-05-03 17:42:00,
2013-05-03 13:52:00,69.0,56.0,30.17,NE,49,1.0,-999.0,64,-99.99,,,-99.99,,2013-05-03 17:52:00,
2013-05-03 14:01:00,69.0,56.0,30.17,North,11,2.0,-999.0,63,-99.99,,,-99.99,,2013-05-03 18:01:00,
2013-05-03 14:12:00,69.0,56.0,30.17,North,11,2.0,-999.0,63,-99.99,,,-99.99,,2013-05-03 18:12:00,
2013-05-03 14:21:00,68.0,56.0,30.16,NE,53,1.0,-999.0,66,-99.99,,,-99.99,,2013-05-03 18:21:00,
2013-05-03 14:32:00,67.0,55.0,30.16,NNW,339,1.0,-999.0,66,-99.99,,,-99.99,,2013-05-03 18:32:00,
2013-05-03 14:42:00,67.0,55.0,30.16,NNW,339,1.0,-999.0,66,-99.99,,,-99.99,,2013-05-03 18:42:00,
2013-05-03 14:52:00,67.0,56.0,30.16,NNE,22,1.0,-999.0,68,-99.99,,,-99.99,,2013-05-03 18:52:00,
2013-05-03 15:01:00,67.0,56.0,30.16,NE,51,2.0,-999.0,68,-99.99,,,-99.99,,2013-05-03 19:01:00,
2013-05-03 15:11:00,67.0,56.0,30.16,NE,51,2.0,-999.0,68,-99.99,,,-99.99,,2013-05-03 19:11:00,
2013-05-03 15:21:00,68.0,56.0,30.15,NE,50,1.0,-999.0,66,-99.99,,,-99.99,,2013-05-03 19:21:00,
2013-05-03 15:32:00,68.0,55.0,30.15,ESE,117,2.0,-999.0,63,-99.99,,,-99.99,,2013-05-03 19:32:00,
2013-05-03 15:42:00,68.0,55.0,30.15,ESE,117,2.0,-999.0,63,-99.99,,,-99.99,,2013-05-03 19:42:00,
2013-05-03 15:52:00,69.0,55.0,30.14,North,360,2.0,-999.0,62,-99.99,,,-99.99,,2013-05-03 19:52:00,
2013-05-03 16:02:00,69.0,55.0,30.14,ENE,57,1.0,-999.0,62,-99.99,,,-99.99,,2013-05-03 20:02:00,
2013-05-03 16:12:00,69.0,55.0,30.14,ENE,57,1.0,-999.0,62,-99.99,,,-99.99,,2013-05-03 20:12:00,
2013-05-03 16:21:00,68.0,55.0,30.14,NNW,348,1.0,-999.0,64,-99.99,,,-99.99,,2013-05-03 20:21:00,
2013-05-03 16:32:00,68.0,55.0,30.13,NE,34,1.0,-999.0,63,-99.99,,,-99.99,,2013-05-03 20:32:00,
2013-05-03 16:42:00,68.0,55.0,30.13,NE,34,1.0,-999.0,63,-99.99,,,-99.99,,2013-05-03 20:42:00,
2013-05-03 16:52:00,68.0,54.0,30.12,ENE,62,1.0,-999.0,62,-99.99,,,-99.99,,2013-05-03 20:52:00,
2013-05-03 17:01:00,68.0,54.0,30.12,East,98,1.0,-999.0,62,-99.99,,,-99.99,,2013-05-03 21:01:00,
2013-05-03 17:11:00,68.0,54.0,30.12,East,98,1.0,-999.0,62,-99.99,,,-99.99,,2013-05-03 21:11:00,
2013-05-03 17:21:00,68.0,54.0,30.12,SE,146,1.0,-999.0,61,-99.99,,,-99.99,,2013-05-03 21:21:00,
2013-05-03 17:33:00,67.0,53.0,30.12,NE,35,1.0,-999.0,61,-99.99,,,-99.99,,2013-05-03 21:33:00,
2013-05-03 17:42:00,67.0,53.0,30.12,NE,35,1.0,-999.0,61,-99.99,,,-99.99,,2013-05-03 21:42:00,
2013-05-03 17:53:00,67.0,54.0,30.12,North,355,2.0,-999.0,62,-99.99,,,-99.99,,2013-05-03 21:53:00,
2013-05-03 18:03:00,67.0,53.0,30.12,NE,36,2.0,-999.0,61,-99.99,,,-99.99,,2013-05-03 22:03:00,
2013-05-03 18:13:00,67.0,53.0,30.12,NE,36,2.0,-999.0,61,-99.99,,,-99.99,,2013-05-03 22:13:00,
2013-05-03 18:22:00,66.0,53.0,30.11,NE,37,0.0,-999.0,64,-99.99,,,-99.99,,2013-05-03 22:22:00,
2013-05-03 18:32:00,66.0,54.0,30.11,NNW,345,0.0,-999.0,65,-99.99,,,-99.99,,2013-05-03 22:32:00,
2013-05-03 18:42:00,66.0,54.0,30.11,NNW,345,0.0,-999.0,65,-99.99,,,-99.99,,2013-05-03 22:42:00,
2013-05-03 18:52:00,66.0,54.0,30.11,NNW,348,1.0,-999.0,66,-99.99,,,-99.99,,2013-05-03 22:52:00,
2013-05-03 19:02:00,66.0,55.0,30.11,NNE,17,1.0,-999.0,67,-99.99,,,-99.99,,2013-05-03 23:02:00,
2013-05-03 19:11:00,66.0,55.0,30.11,NNE,17,1.0,-999.0,67,-99.99,,,-99.99,,2013-05-03 23:11:00,
2013-05-03 19:22:00,65.0,54.0,30.11,ESE,119,0.0,-999.0,67,-99.99,,,-99.99,,2013-05-03 23:22:00,
2013-05-03 19:31:00,65.0,54.0,30.11,East,82,1.0,-999.0,68,-99.99,,,-99.99,,2013-05-03 23:31:00,
2013-05-03 19:41:00,65.0,54.0,30.11,East,82,1.0,-999.0,68,-99.99,,,-99.99,,2013-05-03 23:41:00,
2013-05-03 19:52:00,64.0,52.0,30.11,NE,36,2.0,-999.0,64,-99.99,,,-99.99,,2013-05-03 23:52:00,
2013-05-03 20:01:00,63.0,50.0,30.12,ENE,59,1.0,-999.0,63,-99.99,,,-99.99,,2013-05-04 00:01:00,
2013-05-03 20:11:00,63.0,50.0,30.12,ENE,59,1.0,-999.0,63,-99.99,,,-99.99,,2013-05-04 00:11:00,
2013-05-03 20:23:00,62.0,50.0,30.12,WNW,297,1.0,-999.0,64,-99.99,,,-99.99,,2013-05-04 00:23:00,
2013-05-03 20:32:00,61.0,50.0,30.12,ENE,63,0.0,-999.0,66,-99.99,,,-99.99,,2013-05-04 00:32:00,
2013-05-03 20:42:00,61.0,50.0,30.12,ENE,63,0.0,-999.0,66,-99.99,,,-99.99,,2013-05-04 00:42:00,
2013-05-03 20:52:00,61.0,49.0,30.13,NNE,16,2.0,-999.0,65,-99.99,,,-99.99,,2013-05-04 00:52:00,
2013-05-03 21:01:00,60.0,49.0,30.13,East,80,2.0,-999.0,66,-99.99,,,-99.99,,2013-05-04 01:01:00,
2013-05-03 21:11:00,60.0,49.0,30.13,East,80,2.0,-999.0,66,-99.99,,,-99.99,,2013-05-04 01:11:00,
2013-05-03 21:21:00,60.0,49.0,30.14,NE,56,1.0,-999.0,66,-99.99,,,-99.99,,2013-05-04 01:21:00,
2013-05-03 21:32:00,59.0,48.0,30.14,NE,51,1.0,-999.0,66,-99.99,,,-99.99,,2013-05-04 01:32:00,
2013-05-03 21:42:00,59.0,48.0,30.14,NE,51,1.0,-999.0,66,-99.99,,,-99.99,,2013-05-04 01:42:00,
2013-05-03 21:52:00,59.0,48.0,30.14,NNW,344,1.0,-999.0,68,-99.99,,,-99.99,,2013-05-04 01:52:00,
2013-05-03 22:02:00,58.0,48.0,30.15,NE,52,4.0,-999.0,69,-99.99,,,-99.99,,2013-05-04 02:02:00,
2013-05-03 22:11:00,58.0,48.0,30.15,NE,52,4.0,-999.0,69,-99.99,,,-99.99,,2013-05-04 02:11:00,
2013-05-03 22:21:00,57.0,47.0,30.15,NNE,30,1.0,-999.0,70,-99.99,,,-99.99,,2013-05-04 02:21:00,
2013-05-03 22:32:00,56.0,47.0,30.15,ENE,74,3.0,-999.0,71,-99.99,,,-99.99,,2013-05-04 02:32:00,
2013-05-03 22:42:00,56.0,47.0,30.15,ENE,74,3.0,-999.0,71,-99.99,,,-99.99,,2013-05-04 02:42:00,
2013-05-03 22:52:00,55.0,45.0,30.16,ENE,63,4.0,-999.0,69,-99.99,,,-99.99,,2013-05-04 02:52:00,
2013-05-03 23:02:00,54.0,43.0,30.15,NE,41,3.0,-999.0,67,-99.99,,,-99.99,,2013-05-04 03:02:00,
2013-05-03 23:11:00,54.0,43.0,30.15,NE,41,3.0,-999.0,67,-99.99,,,-99.99,,2013-05-04 03:11:00,
2013-05-03 23:22:00,54.0,44.0,30.15,East,90,2.0,-999.0,68,-99.99,,,-99.99,,2013-05-04 03:22:00,
2013-05-03 23:33:00,53.0,43.0,30.15,ESE,118,2.0,-999.0,70,-99.99,,,-99.99,,2013-05-04 03:33:00,
2013-05-03 23:43:00,53.0,43.0,30.15,ESE,118,2.0,-999.0,70,-99.99,,,-99.99,,2013-05-04 03:43:00,
2013-05-03 23:53:00,53.0,44.0,30.15,NNE,20,1.0,-999.0,72,-99.99,,,-99.99,,2013-05-04 03:53:00,